Regional Weather Roundup
Issued by NWS Sioux Falls, SD

Home | Current Version | Previous Version | Text Only | Print | Product List | Glossary On
Versions: 1 2 3 4 5 6 7 8 9 10 11 12 13 14 15 16 17 18 19 20 21 22 23 24 25 26 27 28 29 30 31 32 33 34 35 36 37 38 39 40 41 42 43 44 45 46 47 48 49 50
105
ASUS43 KFSD 201602
RWRFSD

WEATHER ROUNDUP FOR SE SOUTH DAKOTA/SW MINNESOTA/NW IOWA
NATIONAL WEATHER SERVICE SIOUX FALLS SD
1000 AM CST MON NOV 20 2017

NOTE: "FAIR" INDICATES FEW OR NO CLOUDS BELOW 12,000 FEET WITH NO
SIGNIFICANT WEATHER AND OR OBSTRUCTIONS TO VISIBILITY.


SDZ038>040-050-052>070-201700-
SOUTHEAST SOUTH DAKOTA

CITY           SKY/WX    TMP DP  RH WIND       PRES   REMARKS
BROOKINGS      CLOUDY    33  26  75 S5        29.54  WCI  29
CHAMBERLAIN    CLOUDY    38  27  63 CALM      29.55F
HURON          CLOUDY    35  26  69 S8        29.53F WCI  29
MADISON        FAIR      36  25  64 W13       29.55R
MITCHELL       CLOUDY    38  26  62 S5        29.56F
SIOUX FALLS    CLOUDY    40  26  57 SW8       29.57F
WINNER         FAIR      45  21  38 SW9       29.56F
YANKTON        MOSUNNY   42  25  50 SW7       29.59F
$$

MNZ071-072-080-081-089-090-097-098-201700-
SOUTHWEST MINNESOTA

CITY           SKY/WX    TMP DP  RH WIND       PRES   REMARKS
FAIRMONT       CLOUDY    38  28  67 SW15      29.59F
JACKSON        CLOUDY    39  27  60 SW15      29.56F
LUVERNE        CLOUDY    34  28  80 SW10      29.58F WCI  26
MARSHALL       MOSUNNY   41  25  53 SW16      29.51F
MONTEVIDEO     CLOUDY    36  27  69 SW7       29.49F
PIPESTONE      CLOUDY    36  27  69 SW13      29.53F
REDWOOD FALLS  CLOUDY    37  27  67 S9        29.53F
WINDOM         CLOUDY    39  23  52 SW17G24   29.56S
WORTHINGTON    CLOUDY    38  26  62 SW16      29.55F
$$

IAZ001>003-012>014-020>022-031-032-NEZ013-014-SDZ071-201700-
NORTHWEST IOWA

CITY           SKY/WX    TMP DP  RH WIND       PRES   REMARKS
CHEROKEE       CLOUDY    42  29  60 S15       29.62F
DENISON        CLOUDY    45  27  49 SW15G22   29.69F
ESTHERVILLE    CLOUDY    39  29  67 SW14      29.59F
LE MARS        CLOUDY    41  28  60 S14G20    29.62S
ORANGE CITY    CLOUDY    41  30  65 SW14      29.60F
SHELDON        CLOUDY    41  28  60 S14       29.57F
SIOUX CITY     CLOUDY    42  29  59 SW7       29.65S
SPENCER        CLOUDY    42  28  57 S14G22    29.59F
STORM LAKE     MIX PCPN  41  27  56 SW18      29.62F
$$

ABBREVIATIONS USED IN REMARKS
   TC - TEMPERATURE IN CELSIUS
  WCI - WIND CHILL INDEX
   HX - HEAT INDEX
  VSB - VISIBILITY





USA.gov is the U.S. government's official web portal to all federal, state and local government web resources and services.